Temperature
14 14 14 14 14 14 14 14 15 15 15 15 15 15 15 15 15 15 15 15 15 14 15 15 15 15 15 15 15 15 15 15 15 15 15 15 15 15 15 15 15 15 15
14 14 14 14 14 14 14 14 14 15 15 15 15 15 15 15 15 15 14 14 14 14 14 14 15 15 15 15 15 15 15 15 15 15 15 15 15 15 15 15 15 15 15
14 14 13 14 14 14 14 14 14 14 14 14 14 14 14 14 14 14 14 14 14 14 14 14 14 15 15 15 15 14 14 14 14 15 15 15 15 15 15 15 15 15 15
13 13 13 13 13 14 14 14 14 14 14 14 14 14 14 14 14 14 14 14 14 14 14 14 14 14 14 14 14 14 14 14 14 14 14 14 15 15 15 15 15 15 15
13 13 13 13 13 13 13 13 14 14 14 14 13 14 14 14 14 14 14 14 14 14 14 14 14 14 14 14 14 14 14 14 14 14 14 14 14 14 14 14 15 15 14
13 13 13 13 13 13 13 13 13 13 13 13 13 13 13 13 14 14 14 14 14 14 14 14 14 14 14 14 14 14 14 14 14 14 14 14 14 14 14 14 14 14 14
13 13 12 12 12 13 13 13 13 13 13 13 13 13 13 13 13 13 13 14 14 14 14 14 13 13 13 13 13 13 13 13 13 13 13 14 14 14 14 14 14 14 14
12 12 12 12 12 12 12 12 12 13 13 13 13 13 13 13 13 13 13 13 13 13 13 13 13 13 13 13 13 13 13 13 13 13 13 13 13 13 14 14 14 14 14
12 12 12 12 12 12 12 12 12 12 12 12 12 12 12 12 12 12 13 13 13 13 13 13 13 13 13 13 13 13 13 13 13 13 13 13 13 13 13 13 13 13 13
11 11 11 12 12 12 12 12 12 12 12 12 12 12 12 12 12 12 12 12 13 13 13 13 13 13 13 13 13 13 13 13 13 13 13 13 13 13 13 13 13 13 13
11 11 11 11 11 11 11 11 11 11 11 11 11 11 12 12 12 12 12 12 12 12 12 12 12 12 12 12 12 12 13 13 13 13 13 13 13 13 13 13 13 13 13
10 10 10 10 11 11 11 11 11 11 11 11 11 11 11 11 11 11 11 11 12 12 12 12 12 12 12 12 12 12 12 12 12 12 12 12 12 12 12 13 13 12 12
10 10 10 10 10 10 10 10 10 10 10 10 10 10 11 11 11 11 11 11 11 11 11 11 11 11 12 12 12 12 12 12 12 12 12 12 12 12 12 12 12 12 12
9 9 9 9 9 10 10 10 10 10 10 10 10 10 10 10 10 11 11 11 11 11 11 11 11 11 11 11 11 11 12 12 12 12 12 12 12 12 12 12 12 12 12
9 9 9 9 9 9 9 9 9 9 9 9 9 9 9 10 10 10 10 10 10 10 10 10 10 10 10 11 11 11 11 11 11 12 12 12 11 11 11 11 12 12 12
8 8 8 8 8 8 8 8 9 9 8 8 9 9 9 9 9 9 9 9 9 9 9 10 10 10 10 10 10 11 11 11 11 11 11 11 11 11 11 11 11 11 11
8 8 8 8 8 8 8 8 8 8 8 8 8 8 8 8 8 8 8 9 9 9 9 9 9 9 9 9 10 10 10 10 11 11 11 11 11 11 11 11 11 11 11
7 7 7 7 7 7 7 7 7 7 7 7 7 7 7 8 8 8 8 8 8 8 8 8 8 9 9 9 9 9 10 10 10 10 10 10 10 10 10 10 10 10 10
6 6 6 6 6 6 7 7 7 7 7 7 7 7 7 7 7 7 7 7 7 7 7 7 8 8 8 8 8 9 9 9 9 9 10 10 10 10 10 10 10 10 10
6 6 6 6 6 6 6 6 6 6 6 6 6 6 6 6 6 6 6 6 7 7 7 7 7 7 7 7 8 8 8 8 9 9 9 9 9 9 9 9 9 9 9
5 5 5 5 5 5 5 5 6 6 6 6 6 6 5 5 6 6 6 6 6 6 6 6 6 7 7 7 7 7 7 8 8 8 8 8 8 9 8 9 9 9 9
4 4 5 5 5 5 5 5 5 5 5 5 5 5 5 5 5 5 5 5 5 5 5 5 6 6 6 6 6 6 6 6 7 7 7 8 8 8 8 8 8 8 8
4 4 4 4 4 4 4 4 4 4 4 4 4 5 4 4 4 4 4 4 4 5 5 5 5 5 5 5 5 5 5 5 5 6 7 7 7 7 7 8 8 8 8
3 3 3 3 3 3 3 3 3 3 3 3 3 3 4 4 4 4 4 4 4 4 4 4 4 4 4 5 5 5 5 5 5 5 6 6 6 7 7 7 7 7 7
3 2 2 2 2 2 2 2 2 2 2 3 3 3 3 3 3 3 3 3 3 3 3 3 3 4 4 4 4 4 4 5 4 5 4 5 6 6 6 6 7 7 7
2 2 2 2 2 2 2 2 2 2 2 2 2 2 2 2 2 2 2 2 2 3 3 3 3 3 3 3 4 4 4 4 4 4 4 4 5 5 6 6 6 6 6
Wind_Speed
1 1 2 5 7 8 8 9 9 9 10 10 10 10 10 10 11 11 11 11 11 11 11 11 11 11 11 11 11 11 12 12 13 13 13 13 13 14 14 14 14 13 15
1 1 4 6 7 7 8 8 9 9 9 9 10 10 10 10 10 10 10 11 10 10 10 10 10 10 10 10 10 11 11 12 12 11 11 11 12 13 13 13 13 12 14
4 4 5 6 7 7 7 8 8 8 9 9 9 9 9 9 10 9 10 10 10 10 9 9 9 9 9 9 9 10 10 11 11 10 10 9 10 12 12 12 13 14 14
6 6 6 7 7 7 8 8 8 8 8 8 9 9 9 9 9 10 10 10 9 9 9 8 8 8 8 8 8 8 9 10 10 10 8 7 8 11 12 12 13 14 14
7 7 7 8 8 8 8 8 7 8 8 8 8 8 8 8 9 9 9 9 8 8 8 7 7 7 6 6 7 7 8 9 9 9 8 7 8 10 11 12 12 13 14
7 8 8 9 9 9 9 9 8 8 8 8 8 7 8 8 8 9 9 8 8 8 7 6 6 6 6 6 6 6 7 8 8 8 7 6 7 10 11 11 12 12 13
6 8 8 9 9 9 9 10 9 9 8 8 8 7 7 7 7 8 7 7 7 6 6 6 6 5 5 5 5 6 7 8 8 7 6 6 7 9 10 11 11 12 12
7 8 8 8 9 9 9 9 9 9 9 8 8 7 7 7 7 7 6 6 6 6 6 6 6 5 5 5 5 6 6 6 6 6 5 5 7 9 10 10 11 11 12
8 8 8 8 8 8 8 9 9 9 9 9 9 8 8 7 7 6 6 6 6 6 6 6 6 6 6 6 5 5 5 6 6 5 4 4 6 8 9 10 10 10 11
9 8 8 8 8 7 7 8 8 8 9 9 9 9 8 7 7 7 6 6 6 6 6 6 6 7 6 6 6 5 5 5 5 4 3 4 5 7 8 9 9 10 10
7 7 8 7 7 7 6 7 7 7 8 8 8 8 8 7 6 6 7 6 6 5 5 5 6 6 6 6 6 5 4 3 4 3 2 3 5 7 8 9 10 10 10
6 6 7 7 6 6 5 6 6 6 7 7 7 7 7 6 6 5 5 6 6 5 5 5 5 6 6 5 5 4 4 3 3 2 2 3 4 6 8 9 9 9 10
4 5 6 7 7 6 6 5 5 5 6 6 6 6 6 6 6 6 5 5 5 5 5 5 6 6 5 5 4 4 3 3 3 2 2 3 4 6 7 8 9 9 9
5 6 6 7 7 6 6 5 5 5 5 5 5 5 5 5 5 4 4 4 4 4 4 4 4 4 5 4 4 4 3 3 2 2 2 3 4 5 6 7 8 9 10
5 6 5 6 7 7 6 5 5 5 5 4 5 5 5 4 3 3 3 4 4 4 4 3 4 4 4 4 4 3 3 3 3 2 1 2 4 5 5 6 8 9 10
5 5 5 6 7 7 6 5 4 4 4 5 5 5 4 4 3 2 3 3 3 4 3 3 3 3 3 3 3 3 2 2 2 2 2 2 3 5 5 6 6 8 9
4 5 5 5 8 7 6 5 4 4 4 4 4 5 5 4 3 3 2 3 3 3 3 3 3 3 3 3 2 3 2 1 1 2 2 3 3 4 5 5 5 6 8
4 4 5 6 6 7 6 6 5 4 4 4 4 5 5 4 4 3 2 2 3 3 3 3 2 2 2 2 2 2 2 1 1 1 3 3 3 3 4 4 5 5 6
4 4 5 5 5 6 6 6 5 5 5 4 4 5 5 4 3 3 2 2 2 2 2 2 2 1 1 2 2 2 2 1 1 1 2 2 3 3 3 4 4 5 6
4 4 5 5 5 5 5 5 5 5 5 5 5 5 5 4 3 3 3 3 3 2 1 2 2 1 0 1 1 2 2 2 0 1 1 2 2 3 3 4 4 5 5
6 6 5 5 5 4 3 3 3 3 3 4 5 6 5 4 3 3 3 3 2 1 1 0 0 1 1 0 1 1 2 2 1 0 1 2 2 2 3 3 3 4 4
5 5 5 5 5 5 3 2 1 2 2 3 5 6 6 5 4 3 3 2 3 1 1 1 0 0 1 0 1 0 1 2 1 1 1 1 1 1 2 2 3 3 3
5 5 5 5 5 5 5 3 3 3 3 3 4 4 6 6 5 5 4 3 2 1 2 3 2 1 2 2 1 1 2 2 2 2 1 1 1 0 0 2 3 3 3
4 4 4 5 5 5 5 4 4 3 3 4 4 4 6 7 6 5 5 4 3 2 2 3 3 2 3 3 2 2 2 2 2 1 2 2 2 2 2 1 2 3 3
3 3 4 4 5 5 5 4 4 4 4 4 4 5 5 6 6 6 5 4 4 3 3 4 4 3 3 4 3 2 2 1 1 2 2 3 2 2 2 2 2 3 3
3 3 3 4 5 5 5 5 4 5 5 6 6 6 5 4 5 6 6 5 5 4 4 4 4 5 5 4 4 3 3 3 3 2 2 3 3 3 2 2 2 3 4
Wind_Direction
296 316 101 112 101 92 84 79 78 74 71 69 69 70 70 70 69 71 72 73 72 72 73 76 74 72 73 72 74 77 80 83 84 82 82 86 91 95 96 95 93 91 95
169 110 104 109 103 95 86 81 79 76 73 71 72 71 70 70 70 72 74 74 75 75 72 73 73 72 73 70 70 74 76 81 83 79 81 82 88 95 96 95 97 99 97
86 90 97 100 98 92 86 82 80 77 75 73 74 72 71 70 69 71 73 73 74 77 74 72 72 71 70 70 68 72 76 77 76 79 84 83 89 97 101 100 102 101 100
85 82 85 90 91 90 85 83 80 76 75 74 74 73 71 69 69 69 71 69 68 72 74 74 72 71 68 71 71 72 75 75 73 82 83 85 93 101 105 105 105 104 103
69 74 82 85 82 79 80 81 80 79 77 75 74 74 72 70 69 67 68 68 65 66 69 70 69 68 66 70 72 75 76 72 73 81 83 90 96 104 108 108 107 106 106
60 69 75 80 77 75 73 75 77 77 76 75 73 73 73 72 71 68 66 66 64 63 64 64 64 62 61 69 72 79 78 72 76 82 83 92 102 110 110 112 113 110 109
64 68 71 75 73 72 72 68 66 70 72 70 69 70 71 72 71 69 67 64 62 62 60 60 64 60 58 67 73 79 77 76 83 84 85 94 113 116 115 115 118 114 113
72 69 73 76 74 70 70 67 63 63 65 65 64 64 64 64 67 70 68 65 62 62 60 56 56 57 58 62 71 75 80 80 84 87 85 98 117 120 117 117 119 119 117
64 65 64 71 71 67 66 63 61 62 61 61 60 59 59 59 58 62 64 62 60 61 58 51 46 52 52 53 65 71 79 81 81 82 86 106 125 128 124 120 121 123 121
47 48 52 61 63 61 62 60 58 58 59 58 58 57 56 56 55 55 55 59 59 58 55 46 44 44 44 41 46 60 75 81 79 83 84 112 136 137 134 131 129 128 126
38 32 32 43 55 61 66 59 56 55 56 58 55 58 57 51 50 50 47 51 51 50 47 39 41 36 34 30 28 38 63 75 86 84 89 117 133 141 138 135 134 133 131
26 20 22 28 36 54 59 54 51 48 47 49 48 52 54 55 53 50 45 41 36 35 33 30 35 33 25 18 21 36 57 71 83 89 108 118 128 139 144 141 139 139 139
21 20 16 21 31 43 46 49 45 41 40 40 43 47 49 52 49 44 37 30 25 25 22 21 24 22 22 20 28 39 49 64 80 97 119 121 129 140 145 147 146 147 146
25 13 9 22 31 34 47 47 45 38 35 36 38 49 51 46 41 36 30 20 23 21 22 20 17 15 22 24 31 37 41 57 77 92 127 136 146 148 152 154 154 154 151
29 13 5 24 29 27 36 39 45 38 34 33 35 35 44 43 36 31 23 22 16 12 14 10 11 12 15 20 27 37 35 47 67 75 105 141 150 149 158 160 162 161 157
19 8 4 23 24 27 28 28 32 37 39 39 33 23 32 39 34 33 23 18 15 5 1 1 8 14 7 14 11 15 22 60 67 69 80 120 149 148 149 160 163 167 164
18 12 11 24 24 25 21 16 24 26 34 31 22 18 24 30 28 28 29 17 4 358 3 10 16 24 14 11 2 2 14 43 76 77 85 97 118 135 140 148 158 164 172
29 21 15 25 23 20 19 14 14 21 23 17 16 13 12 20 24 22 17 358 350 5 16 13 17 22 12 7 353 340 358 32 53 96 112 112 116 126 143 153 162 167 172
32 24 19 18 20 13 11 9 5 12 13 5 9 8 2 6 12 8 0 346 354 9 14 7 6 24 10 359 345 340 338 334 25 86 115 124 132 137 145 158 159 166 178
33 26 20 14 12 9 9 8 8 5 3 2 0 356 350 346 352 1 356 348 356 8 8 8 359 357 343 336 345 345 322 302 54 101 150 133 133 136 144 151 157 171 181
27 22 17 13 1 5 3 357 352 342 335 345 345 344 337 331 333 352 352 344 343 306 266 253 26 358 328 34 41 359 338 333 327 311 130 134 122 136 143 147 158 167 178
20 11 10 7 358 355 349 335 316 305 313 335 341 344 340 333 329 333 346 341 337 316 267 235 142 349 274 252 145 125 320 319 326 307 253 183 162 119 126 158 161 165 162
9 2 3 357 356 355 356 0 351 343 332 337 334 335 334 330 330 330 323 318 316 296 248 239 200 203 236 268 225 173 189 221 286 290 273 228 189 205 194 184 184 183 191
351 352 354 354 358 359 4 7 2 344 321 311 309 311 325 326 322 321 319 314 299 282 252 248 235 232 213 240 254 248 240 201 198 255 293 286 269 241 233 235 195 203 198
355 354 350 355 359 2 6 5 356 339 315 310 312 315 316 321 320 318 311 311 303 286 262 258 253 235 225 234 240 246 252 260 226 205 250 278 284 256 246 231 213 211 202
1 357 353 356 354 357 3 359 353 339 328 324 320 317 312 308 312 314 308 303 295 289 274 266 258 246 235 237 245 241 227 216 217 205 227 258 264 273 272 238 221 214 206
Height
1549 1549 1549 1550 1550 1550 1549 1549 1549 1548 1548 1548 1547 1547 1547 1546 1546 1546 1545 1545 1545 1545 1545 1545 1545 1545 1545 1545 1545 1545 1545 1545 1545 1545 1545 1545 1545 1545 1545 1545 1545 1545 1545
1549 1549 1550 1550 1550 1550 1550 1549 1549 1548 1548 1548 1547 1547 1547 1547 1546 1546 1546 1546 1546 1546 1546 1546 1546 1546 1546 1546 1546 1546 1546 1546 1546 1546 1546 1546 1546 1546 1546 1547 1547 1547 1547
1550 1550 1550 1550 1550 1550 1550 1549 1549 1549 1548 1548 1548 1547 1547 1547 1547 1546 1546 1546 1546 1546 1546 1546 1546 1546 1546 1546 1546 1546 1546 1547 1547 1547 1547 1547 1547 1547 1548 1548 1548 1548 1549
1550 1550 1550 1550 1550 1550 1550 1549 1549 1549 1549 1548 1548 1547 1547 1547 1547 1547 1547 1546 1546 1546 1546 1546 1547 1547 1547 1547 1547 1547 1547 1547 1548 1548 1548 1548 1548 1549 1549 1549 1550 1550 1550
1550 1550 1550 1550 1550 1549 1549 1549 1549 1549 1549 1548 1548 1547 1547 1547 1547 1547 1546 1546 1546 1546 1546 1546 1547 1547 1547 1547 1548 1548 1548 1548 1548 1548 1549 1549 1549 1550 1550 1550 1551 1551 1551
1550 1550 1550 1550 1550 1549 1549 1549 1549 1549 1548 1548 1548 1547 1547 1547 1547 1546 1546 1546 1546 1546 1546 1547 1547 1547 1547 1547 1548 1548 1548 1548 1549 1549 1549 1550 1550 1550 1551 1551 1551 1552 1552
1549 1550 1550 1549 1549 1549 1549 1548 1548 1548 1548 1548 1547 1547 1547 1547 1546 1546 1546 1546 1546 1546 1546 1546 1547 1547 1547 1547 1548 1548 1548 1549 1549 1549 1550 1550 1551 1551 1551 1552 1552 1553 1553
1550 1550 1549 1549 1549 1549 1548 1548 1548 1548 1547 1547 1547 1547 1546 1546 1546 1546 1545 1545 1545 1545 1546 1546 1546 1546 1547 1547 1548 1548 1548 1549 1549 1550 1550 1550 1551 1551 1552 1552 1553 1553 1554
1550 1549 1549 1549 1549 1548 1548 1548 1547 1547 1547 1546 1546 1546 1546 1545 1545 1545 1545 1545 1545 1545 1545 1545 1545 1546 1546 1546 1547 1547 1548 1548 1549 1549 1550 1550 1551 1551 1552 1552 1553 1553 1554
1550 1549 1549 1549 1548 1548 1548 1547 1547 1547 1546 1546 1546 1545 1545 1545 1544 1544 1544 1544 1544 1544 1544 1544 1544 1545 1545 1545 1546 1547 1547 1548 1548 1549 1549 1550 1550 1551 1551 1552 1553 1553 1554
1549 1549 1548 1548 1548 1547 1547 1547 1546 1546 1546 1545 1545 1544 1544 1544 1544 1543 1543 1543 1543 1543 1543 1543 1543 1543 1544 1544 1545 1546 1546 1547 1547 1548 1548 1549 1549 1550 1551 1551 1552 1553 1553
1548 1548 1548 1547 1547 1546 1546 1545 1545 1545 1545 1544 1544 1543 1543 1543 1542 1542 1542 1542 1542 1542 1542 1542 1542 1542 1542 1543 1544 1544 1545 1545 1546 1547 1547 1548 1548 1549 1549 1550 1551 1552 1552
1548 1547 1547 1546 1546 1545 1545 1544 1544 1544 1543 1543 1543 1542 1542 1541 1541 1541 1540 1540 1540 1540 1540 1540 1541 1541 1541 1541 1542 1543 1543 1544 1544 1545 1546 1546 1547 1547 1548 1549 1550 1550 1551
1546 1546 1546 1545 1545 1544 1544 1543 1542 1542 1542 1541 1541 1541 1540 1539 1539 1539 1539 1539 1539 1539 1539 1539 1539 1539 1539 1540 1540 1541 1541 1542 1543 1543 1544 1545 1545 1546 1547 1547 1548 1549 1550
1545 1545 1544 1544 1543 1543 1542 1542 1541 1541 1540 1540 1539 1539 1538 1538 1537 1537 1537 1537 1537 1537 1537 1537 1537 1537 1537 1538 1538 1539 1539 1540 1540 1541 1542 1543 1544 1544 1545 1546 1547 1547 1548
1544 1543 1543 1542 1542 1541 1541 1540 1540 1539 1539 1538 1537 1537 1536 1536 1536 1535 1535 1535 1535 1535 1535 1535 1535 1535 1535 1536 1536 1537 1537 1538 1538 1539 1540 1540 1541 1542 1543 1544 1545 1546 1546
1543 1543 1542 1541 1540 1540 1539 1539 1538 1538 1537 1536 1535 1535 1534 1534 1533 1533 1533 1533 1533 1533 1533 1533 1533 1533 1533 1533 1534 1534 1535 1535 1536 1536 1537 1538 1539 1540 1541 1541 1542 1543 1544
1543 1542 1541 1540 1539 1538 1538 1537 1536 1536 1535 1534 1533 1533 1532 1531 1531 1531 1530 1530 1530 1530 1530 1530 1530 1530 1530 1531 1531 1531 1532 1532 1533 1534 1535 1536 1537 1537 1538 1539 1540 1541 1542
1542 1541 1540 1539 1538 1537 1536 1535 1535 1534 1533 1532 1531 1530 1530 1529 1528 1528 1528 1528 1528 1527 1527 1527 1527 1527 1527 1528 1528 1529 1529 1530 1530 1531 1532 1533 1534 1535 1536 1537 1538 1539 1540
1540 1540 1539 1538 1537 1536 1535 1534 1533 1532 1531 1530 1529 1528 1527 1526 1526 1525 1525 1525 1525 1524 1524 1524 1524 1524 1525 1525 1525 1526 1526 1527 1527 1528 1529 1530 1531 1532 1533 1534 1535 1536 1537
1540 1539 1537 1536 1535 1534 1533 1531 1530 1528 1527 1527 1526 1525 1524 1523 1522 1522 1521 1521 1521 1521 1521 1521 1521 1521 1521 1522 1522 1522 1523 1524 1524 1525 1526 1527 1528 1529 1530 1531 1532 1533 1534
1539 1538 1536 1535 1534 1532 1531 1529 1528 1526 1525 1524 1523 1522 1521 1520 1519 1518 1518 1517 1517 1518 1518 1518 1517 1517 1518 1519 1519 1519 1519 1522 1520 1521 1522 1523 1524 1526 1527 1528 1529 1530 1531
1538 1536 1535 1533 1532 1530 1529 1527 1526 1524 1522 1521 1519 1518 1518 1517 1516 1515 1515 1514 1514 1514 1514 1514 1514 1514 1514 1515 1517 1518 1518 1517 1517 1517 1518 1519 1521 1522 1523 1525 1526 1527 1528
1536 1535 1533 1532 1530 1528 1527 1525 1523 1521 1519 1517 1516 1515 1514 1513 1512 1511 1511 1510 1510 1510 1509 1510 1510 1511 1511 1511 1513 1514 1515 1515 1515 1514 1514 1516 1517 1518 1520 1521 1522 1523 1524
1535 1533 1531 1530 1528 1526 1524 1522 1520 1518 1516 1515 1513 1511 1510 1509 1508 1508 1507 1506 1506 1505 1505 1505 1506 1506 1507 1507 1508 1509 1510 1511 1512 1512 1510 1511 1513 1514 1516 1517 1518 1520 1521
1533 1531 1529 1527 1526 1524 1522 1520 1518 1515 1513 1511 1509 1507 1506 1505 1504 1503 1503 1502 1501 1501 1500 1500 1501 1501 1502 1503 1504 1505 1505 1506 1507 1508 1507 1508 1508 1510 1512 1513 1514 1516 1517